sat.trackr.live / text

‹ back to catalog

THEOS

NORAD 33396 · 2008-049A

PAYLOAD ACTIVE UNKNOWN

§ Identity

Operator
Country
THAI
Launch date
2008-10-01
Launch site
DLS
Launch vehicle
Mass (kg)
RCS (m²)
2.84

Purposes: earth_obs

External: N2YO · Heavens-Above · Gunter

§ Orbital elements

Epoch: 2026-09-20T03:42:11.545056Z

Period
101.40 min
Inclination
98.5473°
Eccentricity
0.0001309
Mean motion
14.20142442 rev/d
Perigee alt
823.9 km
Apogee alt
825.8 km
Semi-major
7,203.0 km
B*
-4.0232e-5
RAAN
317.3079°
Arg perigee
87.1022°
Mean anomaly
273.0305°
Rev number
93,144

§ Raw data

THEOS1 33396U 08049A   26263.15430029 -.00000128  00000+0 -40232-4 0  99952 33396  98.5473 317.3079 0001309  87.1022 273.0305 14.20142442931440

JSON: /api/v1/satellites/33396 · /tle

For live sub-satellite position, see the globe view (requires WebGL).

§ Visibility from observer

Set your observer location to see the next 7 days of passes ≥ 10°. The values pass through the URL so the page stays shareable.

No JS? Fill the form by hand. The geolocation button needs JavaScript.

§ Radio — SatNOGS DB

ModeDescriptionDownlinkUplink
BPSK S-Band Telemetry 2.211 GHz

1 transmitter · refreshed weekly from db.satnogs.org